Tracking 17921 objects as of 18-January-2017
HD Live streaming from Space Station
objects crossing your sky now

BREEZE-M DEB

Track BREEZE-M DEB now!
10-day predictions


NORAD ID: 36958
Int'l Code: 2006-006CQ
Perigee: 406.2 km
Apogee: 13,123.0 km
Inclination: 51.8 °
Period: 249.7 minutes
Semi major axis: 13135 km
RCS: 0.0224 m2 (small)
Launch date: February 28, 2006
Source: Commonwealth of Independent States (former USSR) (CIS)
Launch site: TYURATAM MISSILE AND SPACE COMPLEX (TTMTR)

Note: This is SATELLITE DEBRIS
Your satellite tracking list
Your tracking list is empty





NASA's NSSDC Master Catalog

Two Line Element Set (TLE):
1 36958U 06006CQ  17017.71045296  .00002421  00000-0  13753-2 0  9993
2 36958  51.7728 326.4254 4840574  79.9942 329.4474  5.76672236171074
Source of the keplerian elements: AFSPC